Regional Weather Roundup
Issued by NWS

Home | Current Version | Previous Version | Text Only | Print | Product List | Glossary On
Versions: 1 2 3 4 5 6 7 8 9 10 11 12 13 14 15 16 17 18 19 20 21 22 23 24 25 26 27
000
ASUS45 KSLC 040010
RWRUT

UTAH REGIONAL WEATHER ROUNDUP
NATIONAL WEATHER SERVICE SALT LAKE CITY UT
500 PM MST SAT DEC 03 2016

UTZ001>011-023>025-040100-

NORTHERN UTAH

CITY           SKY/WX    TMP DP  RH WIND       PRES   REMARKS
BRIGHAM CITY     N/A     33  22  63 NE3       30.27S
HILL AFB       CLOUDY    30  22  70 E5        30.25S WCI  26
LOGAN          CLOUDY   N/A N/A N/A SW3       30.25R
OGDEN          CLOUDY    33  22  63 SE3       30.26R
SALT LAKE CITY MOCLDY    34  20  56 S7        30.26S WCI  28
TOOELE VALLEY  PTCLDY    32  23  69 CALM      30.26S
WENDOVER       CLEAR     37  12  35 CALM      30.24S
HEBER CITY     PTCLDY    27  18  69 CALM      30.21S
WEST JORDAN    CLOUDY    31  26  80 S3        30.27S

$$

UTZ011>015-024>027-040100-

CENTRAL/NORTHEAST UTAH

CITY           SKY/WX    TMP DP  RH WIND       PRES   REMARKS
PROVO AIRPORT  MOCLDY    30  21  69 NW3       30.29R
MOAB/CANYONLAN CLEAR     36  10  34 N7        30.14R WCI  30
DELTA          CLEAR     34  14  44 CALM      30.25S
PRICE          CLEAR     32  11  41 NW20G25   30.14R WCI  20
RICHFIELD      CLEAR     32  16  51 N6        30.26  WCI  26
ROOSEVELT      CLEAR     32  14  47 E5        30.19R WCI  27
VERNAL         CLEAR     30  13  49 CALM      30.15F

$$

UTZ013>016-019>022-027-040100-

SOUTHERN UTAH

CITY           SKY/WX    TMP DP  RH WIND       PRES   REMARKS
BRYCE CANYON   NOT AVBL
CEDAR CITY     CLEAR     35  14  42 N7        30.18R WCI  29
MILFORD        CLEAR     35  13  40 N12       30.23R WCI  27
ST GEORGE      PTCLDY    48  14  25 W3        30.17F
HANKSVILLE     CLEAR     39  10  30 CALM      30.16S
KANAB          CLEAR     46  10  23 NW1       30.16
BLANDING       CLEAR     37  11  33 NW8G16    30.15R WCI  31

$$

REGIONAL REPORTS     COLORADO/ARIZONA

CITY           SKY/WX    TMP DP  RH WIND       PRES   REMARKS
CRAIG, CO      CLOUDY    27  16  63 SE3       30.13S
GRAND JUNCTION CLEAR     31  17  56 NW8       30.16R WCI  23
RIFLE, CO      CLEAR     28  18  66 SE6       30.15S WCI  22
MONTROSE, CO   CLEAR     33  16  49 CALM      30.14F
CORTEZ, CO     CLEAR     36  11  35 N10       30.06F WCI  28
COLORADO CITY    N/A     43  16  33 W6        30.16S
PAGE, AZ       CLEAR     42   9  25 CALM      30.13S
GRAND CANYON   CLEAR     35   8  32 NE9       30.13S WCI  28
KINGMAN, AZ    CLEAR     49   5  16 N12       30.10S
FLAGSTAFF, AZ  CLEAR     36  10  34 NE13      30.08R WCI  27

$$

REGIONAL REPORTS    NEVADA/IDAHO/WYOMING

CITY           SKY/WX    TMP DP  RH WIND       PRES   REMARKS
LAS VEGAS, NV  PTCLDY    58   4  11 E5        30.14S
ELY, NY        CLEAR     34  17  50 NW5       30.23S WCI  30
ELKO, NV       CLEAR     34  17  50 SW7       30.26S WCI  28
POCATELLO, ID  CLOUDY    34  25  69 SW13      30.20S WCI  25
BURLEY, ID     CLOUDY    37  27  67 W7        30.19S WCI  32
FORT BRIDGER,  FLURRIES  25  18  74 W20G29    30.18R WCI  11
EVANSTON, WY   CLOUDY    23  14  68 SW12      30.18R WCI  12
ROCK SPRINGS,  CLEAR     23  15  71 W23G33    30.08S WCI   7

$$




USA.gov is the U.S. government's official web portal to all federal, state and local government web resources and services.